SCP
0 0 0 0 0 0 0 0 0 0 0 0 -0 0 -0 -0 -0 -0 -0 -0 -0 -0 -0 -0 -0 -0 0 0 0 0 0 0 0 0 -0 0 0 0 0 0 0 0 0 0 0 0 0
0 0 0 0 0 0 0 0 0 0 0 0 0 -0 -0 -0 -0 -0 -0 -0 -0 -0 -0 -0 -0 0 0 0 -0 0 0 0 -0 0 0 0 0 0 0 0 0 0 0 0 0 0 0
0 0 0 0 0 0 0 0 0 0 0 0 -0 -0 -0 -0 -0 -0 -0 -0 -0 -0 -0 -0 -0 0 -0 0 0 0 0 0 -0 0 0 -0 0 0 0 0 0 0 0 0 0 0 0
0 0 0 0 0 0 -0 -0 0 0 0 0 0 0 -0 -0 -0 -0 -0 -0 -0 -0 -0 -0 -0 -0 0 0 0 0 0 0 0 0 0 0 0 0 0 0 0 0 0 0 0 0 0
0 0 0 0 0 0 -0 -0 -0 -0 -0 -0 0 0 -0 -0 -0 -0 -0 -0 -0 -0 -0 -0 -0 -0 -0 0 0 -0 0 0 0 0 0 0 0 0 0 0 0 0 0 0 0 0 0
0 0 0 0 0 0 0 -0 -0 -0 -0 -0 -0 -0 -0 -0 -0 -0 -0 -0 -0 0 0 -0 0 -0 -0 -0 0 -0 0 0 -0 0 0 0 0 0 0 0 0 0 0 0 -0 -0 0
0 0 -0 0 0 0 0 -0 -0 -0 -0 -0 -0 -0 -0 -0 -0 -0 -0 0 0 0 -0 -0 0 0 0 0 0 0 0 0 0 0 0 0 0 0 0 -0 0 0 0 0 0 0 0
0 0 0 -0 0 0 0 0 -0 -0 -0 -0 -0 -0 -0 -0 -0 -0 0 0 0 0 -0 -0 -0 -0 0 0 0 0 0 0 0 0 0 0 0 0 0 0 0 0 0 0 0 0 0
0 0 0 0 0 0 0 0 -0 -0 -0 -0 -0 -0 -0 -0 -0 0 0 0 0 0 0 -0 -0 0 0 0 0 0 0 0 0 0 0 0 -0 0 0 0 0 0 0 0 0 0 0
0 0 0 0 0 0 0 -0 -0 -0 -0 -0 -0 -0 -0 -0 0 0 0 0 0 0 0 0 0 0 0 0 0 0 -0 0 0 0 0 0 -0 0 0 0 0 0 0 0 -0 0 0
0 0 0 0 0 0 0 0 0 -0 -0 -0 -0 -0 -0 -0 -0 0 0 0 0 0 0 0 0 0 0 0 0 0 0 -0 0 0 -0 0 0 0 0 0 0 0 0 0 0 0 0
-0 0 0 0 0 0 0 0 0 0 -0 -0 -0 -0 0 0 0 0 0 0 0 0 0 0 0 0 0 0 0 0 0 0 0 0 0 0 0 -0 -0 0 0 0 0 0 0 0 0
0 0 0 0 0 0 0 0 0 0 -0 -0 -0 -0 0 0 0 0 0 0 0 0 0 0 0 0 0 0 0 0 0 0 0 0 0 0 -0 0 -0 0 0 0 0 0 0 0 0
0 0 0 0 0 0 0 -0 -0 0 -0 -0 -0 -0 0 0 0 -0 0 0 0 0 -0 0 0 0 0 0 0 0 0 0 0 0 0 0 -0 0 0 0 0 0 0 0 0 0 0
0 0 0 0 -0 0 0 0 0 0 -0 -0 -0 0 0 0 0 0 0 0 0 0 -0 0 0 0 0 -0 0 0 0 0 -0 -0 0 0 0 0 0 0 0 0 0 0 0 0 0
0 0 0 0 0 0 0 0 0 -0 -0 -0 0 0 0 0 0 0 0 0 -0 -0 0 0 0 0 0 0 0 -0 -0 0 -0 0 0 0 0 0 0 0 0 0 0 0 0 0 0
0 0 0 0 0 0 0 0 0 0 -0 -0 0 0 0 0 0 0 0 0 -0 0 0 0 0 0 -0 0 0 0 0 -0 0 0 0 0 0 0 0 0 0 0 -0 -0 0 0 0
0 0 0 0 0 0 0 0 0 0 0 0 0 0 0 0 0 0 0 -0 0 0 0 0 0 0 0 0 0 0 0 0 0 0 0 0 0 0 -0 -0 -0 0 0 0 0 0 0
0 0 0 0 0 0 0 0 0 0 0 0 0 0 0 0 0 0 0 0 0 0 0 0 0 0 0 0 0 0 0 0 -0 0 0 0 0 -0 -0 -0 0 0 0 0 0 0 0
0 0 0 0 0 0 0 0 0 0 0 0 0 0 0 0 0 0 0 0 0 0 0 0 0 0 0 0 0 0 0 -0 0 0 0 0 -0 -0 -0 -0 0 0 -0 0 -0 0 0
0 0 0 0 0 0 -0 0 0 0 0 0 0 0 0 0 0 0 0 0 0 0 0 0 0 0 0 0 0 0 0 -0 -0 0 0 0 -0 -0 -0 -0 -0 0 0 -0 0 0 0
0 0 0 0 0 0 0 0 0 0 0 0 0 0 0 0 0 0 0 0 0 0 0 0 0 0 0 0 0 0 0 0 0 -0 -0 0 0 0 -0 -0 0 -0 0 0 0 -0 -0
0 0 0 0 0 0 0 0 0 0 0 0 0 0 0 0 0 0 0 0 0 0 0 0 0 0 0 0 0 0 0 -0 -0 0 0 0 0 0 -0 0 0 -0 -0 -0 0 0 0
0 0 0 0 0 0 0 0 0 0 0 0 0 0 0 0 0 0 0 0 0 0 0 0 0 0 0 0 -0 -0 0 0 -0 0 0 0 0 0 0 -0 -0 0 -0 0 0 -0 0
0 0 0 0 0 0 0 0 0 0 0 0 0 0 0 0 0 0 0 0 0 0 0 0 0 0 0 0 0 0 0 0 0 0 0 0 0 0 0 0 -0 -0 0 -0 0 0 0
0 0 0 0 0 0 0 0 0 0 0 0 0 0 0 0 0 0 0 0 0 0 0 0 0 0 0 0 0 0 0 0 0 0 0 0 0 0 0 0 0 0 0 0 -0 0 0
0 0 0 0 0 0 0 0 0 0 0 0 0 0 0 0 0 0 0 0 0 0 0 0 0 0 0 0 0 0 0 0 0 0 0 0 0 0 0 0 0 0 0 -0 -0 0 0
0 0 0 0 0 0 0 0 0 0 0 0 0 0 0 0 0 0 0 0 0 0 0 0 0 0 0 0 0 0 0 0 0 -0 -0 0 0 0 0 0 0 0 0 0 0 -0 0
0 0 0 0 0 0 0 0 0 0 0 0 0 0 0 0 0 0 -0 0 -0 0 0 0 0 0 0 0 0 0 0 0 0 -0 -0 0 0 0 0 0 0 0 0 0 0 0 0
Wind_Speed_500mb
54 52 47 44 45 45 47 48 49 48 43 35 36 37 31 25 24 26 24 22 20 16 15 15 15 13 11 16 28 14 8 5 3 4 12 16 21 29 33 37 48 48 50 61 65 68 63
54 52 50 46 44 45 47 50 51 51 48 42 30 29 30 22 20 21 21 20 17 12 9 9 13 13 11 25 10 11 7 7 4 10 17 15 19 16 29 38 38 49 50 58 58 60 56
54 51 50 51 49 46 48 50 52 53 52 46 34 24 21 21 18 16 14 15 15 12 8 7 10 12 20 38 9 13 14 16 13 14 16 16 17 19 18 24 44 43 41 38 46 47 44
56 53 51 51 52 52 51 52 54 54 51 47 38 25 17 13 13 11 11 14 13 9 5 4 6 7 20 11 28 24 20 19 19 17 20 21 17 27 32 35 40 34 33 37 44 46 54
54 58 55 53 53 54 56 56 56 56 53 47 38 27 18 10 8 10 8 10 11 5 2 4 6 10 26 13 21 26 25 26 23 20 20 20 23 30 32 29 29 30 33 42 47 46 42
52 55 58 57 53 55 55 57 57 56 51 48 42 28 15 8 8 10 8 9 12 6 5 12 19 19 29 23 17 23 25 26 24 21 26 26 30 24 26 26 29 35 38 41 44 39 39
49 54 57 58 58 56 55 57 56 56 50 47 42 31 16 4 7 12 13 16 7 7 19 30 18 25 17 14 11 17 21 21 23 27 27 34 26 28 34 34 41 41 43 49 41 40 33
46 50 55 59 60 60 58 55 56 53 52 43 39 29 17 6 6 5 11 11 13 19 27 36 47 37 31 15 23 25 25 30 29 29 29 30 33 32 34 36 40 42 39 39 40 41 39
43 46 50 55 59 60 61 60 56 53 49 44 37 25 12 7 8 6 13 15 22 26 19 38 34 28 25 29 31 27 30 34 30 34 34 34 38 33 36 28 37 36 36 39 44 42 43
43 44 47 50 54 59 61 61 60 55 49 43 31 23 8 6 12 16 15 15 25 18 11 20 18 20 17 22 31 34 27 36 37 38 38 34 36 36 36 35 27 40 39 42 40 36 30
45 46 47 50 53 56 60 62 61 57 52 44 34 20 11 11 17 18 17 22 21 11 11 15 21 12 13 25 6 20 23 33 31 37 38 41 38 36 38 32 32 43 38 30 40 34 32
45 47 48 48 52 56 60 63 64 62 56 48 41 27 19 13 18 7 19 20 11 11 11 13 12 12 19 30 32 30 22 29 31 36 40 46 56 47 51 41 32 33 28 29 34 28 30
43 46 49 48 50 54 59 64 66 67 63 55 44 36 29 22 15 18 20 14 12 11 2 2 1 9 18 26 31 26 26 34 33 40 40 45 40 42 48 44 41 35 30 25 28 24 31
38 43 48 50 49 51 57 63 66 68 69 64 50 34 23 24 14 20 16 16 15 22 23 25 16 27 34 35 35 36 30 33 37 37 31 31 34 35 24 32 37 35 35 27 35 26 30
41 42 45 47 54 48 53 60 67 69 68 70 46 16 9 6 12 13 22 18 27 22 24 21 31 35 32 29 24 19 30 32 38 29 32 31 41 15 17 29 12 21 30 38 30 34 27
42 41 43 51 53 54 52 59 65 67 66 64 42 10 18 19 10 11 19 30 41 37 12 19 27 24 32 33 38 37 38 31 45 16 21 35 40 28 28 8 8 15 18 16 11 7 24
45 38 41 42 51 56 52 57 65 70 64 57 30 15 11 8 8 20 17 30 33 30 22 11 27 34 36 37 36 38 38 38 27 18 23 20 26 30 22 21 43 19 29 41 22 17 13
42 39 37 41 42 54 51 53 60 68 67 56 18 14 12 2 15 23 20 26 21 29 30 25 28 32 33 34 33 37 39 38 12 19 16 8 12 23 36 36 43 38 33 7 8 17 16
41 43 34 37 36 52 53 51 54 57 63 68 27 35 15 6 13 18 33 31 43 31 23 16 23 30 31 34 34 31 36 39 37 14 14 13 9 21 25 26 24 12 36 21 26 21 24
44 42 37 38 38 43 56 53 51 48 48 52 18 12 12 19 39 17 25 31 30 39 26 21 21 25 31 31 28 33 35 35 11 21 17 2 18 28 27 38 31 12 22 27 18 15 19
45 46 42 44 43 40 67 57 51 47 36 39 15 22 15 15 27 37 32 31 33 30 22 19 19 30 31 30 33 35 31 28 27 14 9 11 25 29 36 41 44 45 46 35 42 41 34
47 46 48 47 46 43 67 72 43 44 32 27 29 20 28 45 38 29 21 33 33 27 24 28 32 35 30 31 31 34 30 27 29 32 29 17 30 30 41 45 44 50 45 42 45 44 47
45 42 46 47 43 52 63 64 39 34 27 18 27 26 26 25 30 24 23 37 32 32 28 20 34 24 27 31 38 36 36 38 32 27 27 26 19 20 29 32 35 28 41 33 36 36 28
47 41 45 50 57 54 57 42 33 33 25 21 19 25 28 21 21 24 34 54 32 34 35 39 37 28 38 36 37 42 47 46 40 31 27 24 20 17 24 31 26 13 30 17 4 29 24
51 49 50 55 56 59 50 33 41 46 38 27 17 15 18 15 27 29 29 37 45 36 32 30 24 17 19 27 19 19 21 21 20 19 21 16 9 6 8 18 34 35 21 29 25 25 28
58 56 55 58 59 54 49 34 36 34 31 28 18 19 13 17 12 30 26 42 22 24 23 11 5 7 12 14 13 15 10 8 10 12 3 10 8 9 15 10 13 18 31 34 35 23 35
56 60 62 63 59 51 41 32 26 32 32 33 29 21 12 19 35 18 17 26 27 20 15 25 12 13 11 10 6 12 13 11 5 7 12 12 7 19 20 14 17 23 40 44 18 23 56
47 47 57 59 52 46 34 25 20 33 30 34 25 16 16 16 48 41 21 31 27 25 17 30 16 5 7 7 5 4 7 11 14 18 16 11 7 8 12 11 13 36 18 22 30 52 55
39 42 41 48 49 43 30 25 20 30 33 30 30 7 19 21 28 41 56 52 37 29 22 16 19 15 9 7 7 9 8 9 15 10 21 7 3 6 8 11 39 43 42 50 47 54 56
Wind_Direction_500mb
8 6 7 10 8 3 359 356 349 344 338 339 333 325 319 318 316 318 316 313 306 302 292 271 266 272 286 260 262 196 257 278 184 60 242 239 243 245 248 248 255 245 252 256 253 252 263
9 10 7 11 13 8 3 356 351 348 343 338 334 328 319 318 315 319 322 321 319 309 285 257 252 266 281 262 143 248 189 193 217 244 253 261 260 287 288 267 258 264 256 259 256 261 265
10 11 12 9 9 8 5 1 357 353 347 341 333 331 327 322 323 328 337 333 327 325 304 253 231 248 267 234 235 221 205 226 239 250 261 250 268 281 270 269 252 268 273 274 264 255 261
13 11 9 9 7 5 5 4 2 360 354 346 342 337 337 339 339 351 357 354 338 317 304 233 227 257 260 263 237 231 224 234 244 252 253 271 275 273 275 278 285 269 263 260 251 254 247
12 12 10 7 5 5 3 4 4 4 2 358 349 344 342 356 27 6 354 2 358 344 258 211 225 242 267 224 240 229 229 238 244 239 252 259 271 270 271 258 258 244 255 253 254 244 245
7 11 12 10 6 3 3 3 4 4 6 3 357 348 347 2 29 12 345 326 319 300 255 262 246 262 257 258 217 221 227 237 246 252 252 247 252 252 246 245 255 262 250 238 244 252 252
5 5 8 11 8 4 2 1 3 3 3 6 2 354 347 20 25 22 1 310 315 238 225 246 297 243 300 264 240 227 223 221 242 249 261 254 243 251 247 254 256 265 269 283 291 295 306
0 3 2 5 7 7 2 360 359 1 359 359 3 359 349 346 9 17 357 300 358 313 299 264 248 254 259 251 270 228 224 221 231 245 256 241 249 259 263 263 277 279 280 282 287 278 280
355 358 360 360 0 5 5 360 356 355 358 354 355 359 356 342 345 334 346 334 330 317 280 288 222 239 236 228 243 255 215 228 248 265 255 258 277 290 292 279 282 269 266 273 276 279 269
348 352 355 356 356 358 1 1 356 351 350 351 343 353 351 310 317 326 277 318 330 323 278 232 192 241 208 207 241 238 241 236 247 258 262 270 279 290 292 284 274 272 272 262 261 262 266
340 345 348 351 352 353 354 356 357 352 345 341 339 320 313 289 303 303 316 318 316 304 287 157 145 122 226 205 319 215 227 250 253 274 276 271 270 262 272 257 264 274 268 294 301 287 284
334 338 340 346 348 349 349 351 353 352 346 338 329 311 284 296 293 299 314 309 306 238 252 158 158 224 218 224 247 262 211 224 260 279 275 272 271 274 275 265 261 264 278 281 284 284 269
328 331 333 340 344 346 347 347 349 349 346 340 327 308 274 258 265 308 308 279 247 246 127 247 276 305 261 267 271 248 242 243 242 256 256 265 286 289 274 265 277 248 252 257 249 245 258
320 324 327 332 337 343 345 345 345 345 346 339 335 315 273 245 269 296 302 250 252 281 314 14 343 312 292 284 273 268 285 287 254 263 264 274 292 298 346 328 281 273 295 243 254 258 259
314 320 323 328 329 338 343 345 343 344 346 339 345 336 320 283 238 279 277 245 249 293 336 338 323 290 285 298 290 259 270 275 299 314 297 292 273 294 180 221 251 264 252 277 276 285 277
306 316 321 324 328 330 343 345 342 341 345 343 347 294 278 184 243 268 260 264 289 290 356 318 296 299 297 308 320 310 307 314 319 14 285 300 298 298 315 23 280 199 275 287 219 241 246
299 310 316 323 327 326 341 345 343 339 343 347 341 278 175 208 258 255 253 277 309 350 351 308 299 299 300 300 300 297 299 305 11 351 350 308 300 298 344 285 284 217 223 249 301 238 259
295 301 313 317 325 326 336 344 344 339 341 350 336 288 181 189 266 240 256 332 318 292 297 288 282 279 280 288 295 300 304 305 22 331 280 201 264 272 282 258 279 302 276 290 184 296 286
289 293 304 305 316 323 327 342 341 342 346 342 316 287 226 270 280 322 325 322 321 307 316 302 300 303 309 301 301 295 291 292 307 287 329 1 302 317 322 297 36 20 304 294 320 257 216
289 289 294 295 298 311 321 330 335 337 343 336 299 309 330 269 267 261 317 316 311 316 295 294 291 301 292 283 288 301 306 301 235 269 118 126 282 275 275 285 306 211 242 271 196 255 262
290 287 287 287 296 319 316 320 327 332 350 330 279 307 347 299 318 322 305 304 304 307 322 314 298 292 295 307 305 297 297 307 320 149 215 233 273 282 285 284 285 292 292 255 261 279 273
288 287 285 288 299 312 304 314 315 323 339 314 309 338 325 303 298 298 292 286 312 329 334 312 307 301 302 298 294 302 307 301 296 302 305 276 267 273 282 284 284 280 295 287 278 268 265
281 285 284 287 301 308 305 303 300 313 330 304 317 318 297 287 298 309 307 326 315 312 306 288 300 289 288 298 315 305 296 287 282 285 283 291 306 312 282 288 305 277 260 274 291 304 301
275 274 278 285 286 296 299 296 306 309 320 312 311 322 298 290 308 307 311 298 318 315 303 302 300 294 292 304 305 287 267 254 251 250 252 268 274 288 283 299 283 282 320 295 151 281 300
272 268 272 279 282 286 292 294 300 293 303 298 275 320 302 294 299 301 327 318 313 300 287 289 286 310 338 301 284 290 271 253 214 259 226 232 274 275 262 264 289 298 360 321 326 324 24
274 271 268 270 277 285 291 297 302 300 294 303 270 255 270 294 207 338 326 305 310 323 315 313 38 314 297 285 280 265 296 299 190 178 247 203 233 216 281 273 279 313 24 352 340 281 9
271 272 271 275 286 295 293 300 290 288 296 303 297 255 266 272 277 334 304 303 307 313 290 293 357 327 242 272 282 272 285 321 304 190 215 203 220 227 247 254 273 18 348 329 304 331 333
282 272 271 275 284 292 296 297 282 275 289 303 303 235 257 273 284 276 294 291 279 262 294 351 292 354 310 290 303 323 314 326 310 314 292 189 240 217 251 245 263 10 357 359 311 312 316
286 278 273 273 275 284 275 283 270 265 288 298 306 239 269 261 266 271 277 264 251 261 290 291 304 285 354 327 349 324 340 302 322 306 324 360 11 276 294 298 316 350 333 329 350 334 325
Wind_Speed_850mb
54 52 47 44 45 45 47 48 49 48 43 35 36 37 31 25 24 26 24 22 20 16 15 15 15 13 11 16 28 14 8 5 3 4 12 16 21 29 33 37 48 48 50 61 65 68 63
54 52 50 46 44 45 47 50 51 51 48 42 30 29 30 22 20 21 21 20 17 12 9 9 13 13 11 25 10 11 7 7 4 10 17 15 19 16 29 38 38 49 50 58 58 60 56
54 51 50 51 49 46 48 50 52 53 52 46 34 24 21 21 18 16 14 15 15 12 8 7 10 12 20 38 9 13 14 16 13 14 16 16 17 19 18 24 44 43 41 38 46 47 44
56 53 51 51 52 52 51 52 54 54 51 47 38 25 17 13 13 11 11 14 13 9 5 4 6 7 20 11 28 24 20 19 19 17 20 21 17 27 32 35 40 34 33 37 44 46 54
54 58 55 53 53 54 56 56 56 56 53 47 38 27 18 10 8 10 8 10 11 5 2 4 6 10 26 13 21 26 25 26 23 20 20 20 23 30 32 29 29 30 33 42 47 46 42
52 55 58 57 53 55 55 57 57 56 51 48 42 28 15 8 8 10 8 9 12 6 5 12 19 19 29 23 17 23 25 26 24 21 26 26 30 24 26 26 29 35 38 41 44 39 39
49 54 57 58 58 56 55 57 56 56 50 47 42 31 16 4 7 12 13 16 7 7 19 30 18 25 17 14 11 17 21 21 23 27 27 34 26 28 34 34 41 41 43 49 41 40 33
46 50 55 59 60 60 58 55 56 53 52 43 39 29 17 6 6 5 11 11 13 19 27 36 47 37 31 15 23 25 25 30 29 29 29 30 33 32 34 36 40 42 39 39 40 41 39
43 46 50 55 59 60 61 60 56 53 49 44 37 25 12 7 8 6 13 15 22 26 19 38 34 28 25 29 31 27 30 34 30 34 34 34 38 33 36 28 37 36 36 39 44 42 43
43 44 47 50 54 59 61 61 60 55 49 43 31 23 8 6 12 16 15 15 25 18 11 20 18 20 17 22 31 34 27 36 37 38 38 34 36 36 36 35 27 40 39 42 40 36 30
45 46 47 50 53 56 60 62 61 57 52 44 34 20 11 11 17 18 17 22 21 11 11 15 21 12 13 25 6 20 23 33 31 37 38 41 38 36 38 32 32 43 38 30 40 34 32
45 47 48 48 52 56 60 63 64 62 56 48 41 27 19 13 18 7 19 20 11 11 11 13 12 12 19 30 32 30 22 29 31 36 40 46 56 47 51 41 32 33 28 29 34 28 30
43 46 49 48 50 54 59 64 66 67 63 55 44 36 29 22 15 18 20 14 12 11 2 2 1 9 18 26 31 26 26 34 33 40 40 45 40 42 48 44 41 35 30 25 28 24 31
38 43 48 50 49 51 57 63 66 68 69 64 50 34 23 24 14 20 16 16 15 22 23 25 16 27 34 35 35 36 30 33 37 37 31 31 34 35 24 32 37 35 35 27 35 26 30
41 42 45 47 54 48 53 60 67 69 68 70 46 16 9 6 12 13 22 18 27 22 24 21 31 35 32 29 24 19 30 32 38 29 32 31 41 15 17 29 12 21 30 38 30 34 27
42 41 43 51 53 54 52 59 65 67 66 64 42 10 18 19 10 11 19 30 41 37 12 19 27 24 32 33 38 37 38 31 45 16 21 35 40 28 28 8 8 15 18 16 11 7 24
45 38 41 42 51 56 52 57 65 70 64 57 30 15 11 8 8 20 17 30 33 30 22 11 27 34 36 37 36 38 38 38 27 18 23 20 26 30 22 21 43 19 29 41 22 17 13
42 39 37 41 42 54 51 53 60 68 67 56 18 14 12 2 15 23 20 26 21 29 30 25 28 32 33 34 33 37 39 38 12 19 16 8 12 23 36 36 43 38 33 7 8 17 16
41 43 34 37 36 52 53 51 54 57 63 68 27 35 15 6 13 18 33 31 43 31 23 16 23 30 31 34 34 31 36 39 37 14 14 13 9 21 25 26 24 12 36 21 26 21 24
44 42 37 38 38 43 56 53 51 48 48 52 18 12 12 19 39 17 25 31 30 39 26 21 21 25 31 31 28 33 35 35 11 21 17 2 18 28 27 38 31 12 22 27 18 15 19
45 46 42 44 43 40 67 57 51 47 36 39 15 22 15 15 27 37 32 31 33 30 22 19 19 30 31 30 33 35 31 28 27 14 9 11 25 29 36 41 44 45 46 35 42 41 34
47 46 48 47 46 43 67 72 43 44 32 27 29 20 28 45 38 29 21 33 33 27 24 28 32 35 30 31 31 34 30 27 29 32 29 17 30 30 41 45 44 50 45 42 45 44 47
45 42 46 47 43 52 63 64 39 34 27 18 27 26 26 25 30 24 23 37 32 32 28 20 34 24 27 31 38 36 36 38 32 27 27 26 19 20 29 32 35 28 41 33 36 36 28
47 41 45 50 57 54 57 42 33 33 25 21 19 25 28 21 21 24 34 54 32 34 35 39 37 28 38 36 37 42 47 46 40 31 27 24 20 17 24 31 26 13 30 17 4 29 24
51 49 50 55 56 59 50 33 41 46 38 27 17 15 18 15 27 29 29 37 45 36 32 30 24 17 19 27 19 19 21 21 20 19 21 16 9 6 8 18 34 35 21 29 25 25 28
58 56 55 58 59 54 49 34 36 34 31 28 18 19 13 17 12 30 26 42 22 24 23 11 5 7 12 14 13 15 10 8 10 12 3 10 8 9 15 10 13 18 31 34 35 23 35
56 60 62 63 59 51 41 32 26 32 32 33 29 21 12 19 35 18 17 26 27 20 15 25 12 13 11 10 6 12 13 11 5 7 12 12 7 19 20 14 17 23 40 44 18 23 56
47 47 57 59 52 46 34 25 20 33 30 34 25 16 16 16 48 41 21 31 27 25 17 30 16 5 7 7 5 4 7 11 14 18 16 11 7 8 12 11 13 36 18 22 30 52 55
39 42 41 48 49 43 30 25 20 30 33 30 30 7 19 21 28 41 56 52 37 29 22 16 19 15 9 7 7 9 8 9 15 10 21 7 3 6 8 11 39 43 42 50 47 54 56
Wind_Direction_850mb
8 6 7 10 8 3 359 356 349 344 338 339 333 325 319 318 316 318 316 313 306 302 292 271 266 272 286 260 262 196 257 278 184 60 242 239 243 245 248 248 255 245 252 256 253 252 263
9 10 7 11 13 8 3 356 351 348 343 338 334 328 319 318 315 319 322 321 319 309 285 257 252 266 281 262 143 248 189 193 217 244 253 261 260 287 288 267 258 264 256 259 256 261 265
10 11 12 9 9 8 5 1 357 353 347 341 333 331 327 322 323 328 337 333 327 325 304 253 231 248 267 234 235 221 205 226 239 250 261 250 268 281 270 269 252 268 273 274 264 255 261
13 11 9 9 7 5 5 4 2 360 354 346 342 337 337 339 339 351 357 354 338 317 304 233 227 257 260 263 237 231 224 234 244 252 253 271 275 273 275 278 285 269 263 260 251 254 247
12 12 10 7 5 5 3 4 4 4 2 358 349 344 342 356 27 6 354 2 358 344 258 211 225 242 267 224 240 229 229 238 244 239 252 259 271 270 271 258 258 244 255 253 254 244 245
7 11 12 10 6 3 3 3 4 4 6 3 357 348 347 2 29 12 345 326 319 300 255 262 246 262 257 258 217 221 227 237 246 252 252 247 252 252 246 245 255 262 250 238 244 252 252
5 5 8 11 8 4 2 1 3 3 3 6 2 354 347 20 25 22 1 310 315 238 225 246 297 243 300 264 240 227 223 221 242 249 261 254 243 251 247 254 256 265 269 283 291 295 306
0 3 2 5 7 7 2 360 359 1 359 359 3 359 349 346 9 17 357 300 358 313 299 264 248 254 259 251 270 228 224 221 231 245 256 241 249 259 263 263 277 279 280 282 287 278 280
355 358 360 360 0 5 5 360 356 355 358 354 355 359 356 342 345 334 346 334 330 317 280 288 222 239 236 228 243 255 215 228 248 265 255 258 277 290 292 279 282 269 266 273 276 279 269
348 352 355 356 356 358 1 1 356 351 350 351 343 353 351 310 317 326 277 318 330 323 278 232 192 241 208 207 241 238 241 236 247 258 262 270 279 290 292 284 274 272 272 262 261 262 266
340 345 348 351 352 353 354 356 357 352 345 341 339 320 313 289 303 303 316 318 316 304 287 157 145 122 226 205 319 215 227 250 253 274 276 271 270 262 272 257 264 274 268 294 301 287 284
334 338 340 346 348 349 349 351 353 352 346 338 329 311 284 296 293 299 314 309 306 238 252 158 158 224 218 224 247 262 211 224 260 279 275 272 271 274 275 265 261 264 278 281 284 284 269
328 331 333 340 344 346 347 347 349 349 346 340 327 308 274 258 265 308 308 279 247 246 127 247 276 305 261 267 271 248 242 243 242 256 256 265 286 289 274 265 277 248 252 257 249 245 258
320 324 327 332 337 343 345 345 345 345 346 339 335 315 273 245 269 296 302 250 252 281 314 14 343 312 292 284 273 268 285 287 254 263 264 274 292 298 346 328 281 273 295 243 254 258 259
314 320 323 328 329 338 343 345 343 344 346 339 345 336 320 283 238 279 277 245 249 293 336 338 323 290 285 298 290 259 270 275 299 314 297 292 273 294 180 221 251 264 252 277 276 285 277
306 316 321 324 328 330 343 345 342 341 345 343 347 294 278 184 243 268 260 264 289 290 356 318 296 299 297 308 320 310 307 314 319 14 285 300 298 298 315 23 280 199 275 287 219 241 246
299 310 316 323 327 326 341 345 343 339 343 347 341 278 175 208 258 255 253 277 309 350 351 308 299 299 300 300 300 297 299 305 11 351 350 308 300 298 344 285 284 217 223 249 301 238 259
295 301 313 317 325 326 336 344 344 339 341 350 336 288 181 189 266 240 256 332 318 292 297 288 282 279 280 288 295 300 304 305 22 331 280 201 264 272 282 258 279 302 276 290 184 296 286
289 293 304 305 316 323 327 342 341 342 346 342 316 287 226 270 280 322 325 322 321 307 316 302 300 303 309 301 301 295 291 292 307 287 329 1 302 317 322 297 36 20 304 294 320 257 216
289 289 294 295 298 311 321 330 335 337 343 336 299 309 330 269 267 261 317 316 311 316 295 294 291 301 292 283 288 301 306 301 235 269 118 126 282 275 275 285 306 211 242 271 196 255 262
290 287 287 287 296 319 316 320 327 332 350 330 279 307 347 299 318 322 305 304 304 307 322 314 298 292 295 307 305 297 297 307 320 149 215 233 273 282 285 284 285 292 292 255 261 279 273
288 287 285 288 299 312 304 314 315 323 339 314 309 338 325 303 298 298 292 286 312 329 334 312 307 301 302 298 294 302 307 301 296 302 305 276 267 273 282 284 284 280 295 287 278 268 265
281 285 284 287 301 308 305 303 300 313 330 304 317 318 297 287 298 309 307 326 315 312 306 288 300 289 288 298 315 305 296 287 282 285 283 291 306 312 282 288 305 277 260 274 291 304 301
275 274 278 285 286 296 299 296 306 309 320 312 311 322 298 290 308 307 311 298 318 315 303 302 300 294 292 304 305 287 267 254 251 250 252 268 274 288 283 299 283 282 320 295 151 281 300
272 268 272 279 282 286 292 294 300 293 303 298 275 320 302 294 299 301 327 318 313 300 287 289 286 310 338 301 284 290 271 253 214 259 226 232 274 275 262 264 289 298 360 321 326 324 24
274 271 268 270 277 285 291 297 302 300 294 303 270 255 270 294 207 338 326 305 310 323 315 313 38 314 297 285 280 265 296 299 190 178 247 203 233 216 281 273 279 313 24 352 340 281 9
271 272 271 275 286 295 293 300 290 288 296 303 297 255 266 272 277 334 304 303 307 313 290 293 357 327 242 272 282 272 285 321 304 190 215 203 220 227 247 254 273 18 348 329 304 331 333
282 272 271 275 284 292 296 297 282 275 289 303 303 235 257 273 284 276 294 291 279 262 294 351 292 354 310 290 303 323 314 326 310 314 292 189 240 217 251 245 263 10 357 359 311 312 316
286 278 273 273 275 284 275 283 270 265 288 298 306 239 269 261 266 271 277 264 251 261 290 291 304 285 354 327 349 324 340 302 322 306 324 360 11 276 294 298 316 350 333 329 350 334 325